Weather History for Quillayute, WA

Change the Weather History Date:

Saturday, February 1, 2014

  Actual Average Record
Temperature  
Mean Temperature 43 °F 42 °F  
Max Temperature 50 °F 48 °F 57 °F (2005)
Min Temperature 35 °F 36 °F 12 °F (1989)
Degree Days  
Heating Degree Days 22 23  
Month to date heating degree days 22 23  
Since 1 July heating degree days 2580 3228  
Cooling Degree Days 0 0  
Month to date cooling degree days 0 0  
Year to date cooling degree days 0 0  
Moisture  
Dew Point 36 °F    
Average Humidity 71    
Maximum Humidity 92    
Minimum Humidity 50    
Precipitation  
Precipitation 0.00 in 0.39 in 4.55 in (1991)
Month to date precipitation 0.00 0.39  
Year to date precipitation 11.93 15.00  
Sea Level Pressure  
Sea Level Pressure 30.13 in    
Wind  
Wind Speed 4 mph (ENE)    
Max Wind Speed 8 mph    
Max Gust Speed 10 mph    
Visibility 7 miles    
Events      
T = Trace of Precipitation, MM = Missing Value Source: NWS Daily Summary

Daily Weather History Graph

Daily Weather History Graph

Search for Another Location

Airport:

Trip Planner

Search our weather history database for the weather conditions in past years. The results will help you decide how hot, cold, wet, or windy it might be!

Date:

Astronomy

Feb. 01, 2014 Rise Set
Actual Time 7:45 AM PST 5:18 PM PST
Civil Twilight 7:12 AM PST 5:52 PM PST
Nautical Twilight 6:35 AM PST 6:29 PM PST
Astronomical Twilight 5:58 AM PST 7:05 PM PST
Moon 8:25 AM PST (2/1) 8:16 PM PST (2/1)
Length of Visible Light 10h 39m
Length of Day
9h 33m
Waxing Crescent, 5% of the Moon is Illuminated
Feb 1
Waxing Crescent
Feb 6
First Quarter
Feb 14
Full
Feb 22
Last Quarter
Mar 1
New

Hourly Weather History & Observations

Time (PST) Temp. Windchill Dew Point Humidity Pressure Visibility Wind Dir Wind Speed Gust Speed Precip Events Conditions
12:53 AM 39.9 °F 35.8 °F 36.0 °F 86% 30.15 in 7.0 mi ENE 5.8 mph - N/A   Overcast
1:53 AM 39.9 °F 35.8 °F 37.0 °F 89% 30.16 in 7.0 mi East 5.8 mph - N/A   Overcast
2:53 AM 41.0 °F 36.4 °F 37.0 °F 86% 30.16 in 8.0 mi East 6.9 mph - N/A   Overcast
3:53 AM 41.0 °F 36.4 °F 37.0 °F 86% 30.15 in 8.0 mi East 6.9 mph - N/A   Overcast
4:53 AM 41.0 °F 38.0 °F 37.0 °F 86% 30.16 in 8.0 mi East 4.6 mph - N/A   Overcast
5:53 AM 41.0 °F 37.1 °F 37.0 °F 86% 30.15 in 8.0 mi ENE 5.8 mph - N/A   Overcast
6:53 AM 39.0 °F - 35.1 °F 86% 30.15 in 8.0 mi Calm Calm - N/A   Mostly Cloudy
7:53 AM 39.9 °F 37.8 °F 36.0 °F 86% 30.15 in 8.0 mi ENE 3.5 mph - N/A   Overcast
8:53 AM 41.0 °F 38.0 °F 37.0 °F 86% 30.16 in 6.0 mi NE 4.6 mph - N/A   Overcast
9:53 AM 43.0 °F 40.3 °F 37.0 °F 80% 30.17 in 6.0 mi ENE 4.6 mph - N/A   Haze
10:53 AM 45.0 °F 42.6 °F 37.0 °F 74% 30.16 in 7.0 mi ENE 4.6 mph - N/A   Overcast
11:53 AM 46.9 °F - 36.0 °F 66% 30.15 in 7.0 mi East 5.8 mph - N/A   Overcast
12:53 PM 48.0 °F - 35.1 °F 61% 30.14 in 7.0 mi ESE 3.5 mph - N/A   Overcast
1:53 PM 50.0 °F - 32.0 °F 50% 30.12 in 7.0 mi Calm Calm - N/A   Overcast
2:53 PM 48.9 °F - 33.1 °F 54% 30.11 in 7.0 mi ENE 4.6 mph - N/A   Overcast
3:53 PM 46.9 °F - 37.9 °F 71% 30.11 in 6.0 mi West 5.8 mph - N/A   Haze
4:53 PM 46.0 °F - 37.9 °F 73% 30.10 in 6.0 mi Calm Calm - N/A   Haze
5:53 PM 44.1 °F - 39.0 °F 82% 30.10 in 8.0 mi Calm Calm - N/A   Overcast
6:53 PM 43.0 °F - 39.0 °F 86% 30.09 in 7.0 mi Calm Calm - N/A   Overcast
7:53 PM 42.1 °F 40.2 °F 37.9 °F 85% 30.09 in 8.0 mi ENE 3.5 mph - N/A   Overcast
8:53 PM 41.0 °F 39.0 °F 37.0 °F 86% 30.09 in 8.0 mi East 3.5 mph - N/A   Overcast
9:53 PM 39.9 °F - 36.0 °F 86% 30.08 in 8.0 mi Calm Calm - N/A   Overcast
10:53 PM 39.0 °F 35.7 °F 35.1 °F 86% 30.08 in 8.0 mi East 4.6 mph - N/A   Overcast
11:53 PM 36.0 °F - 33.1 °F 89% 30.08 in 7.0 mi Calm Calm - N/A   Mostly Cloudy